Location: Colonia Mina de C?rbuni
(46.1667°N, 22.7167°E)
Time: 06:23:51
(UTC+00:00)

Courier 1B - Pass Details

Date: 26 April 2024
Orbit: 962 x 1208 km, 28.3° (Epoch: 26 May)

Event Time Altitude Azimuth Distance (km) Brightness Sun altitude
Rises 22:18:56 0° 227° (SW) 4,100 - -29.9°
Reaches altitude 10° 22:22:52 10° 210° (SSW) 3,123 - -29.9°
Maximum altitude 22:27:42 18° 171° (S) 2,548 - -29.9°
Drops below altitude 10° 22:32:26 10° 132° (SE) 3,050 - -29.9°
Sets 22:36:13 0° 114° (ESE) 3,969 - -29.9°
